Theta_e
333 332 334 337 337 333 332 329 330 332 333 333 334 334 334 334 334 334 334 335 337 343 350 352 351 351 349 347 345 344 343 342 342 341 340 339 337 337 336 336 336 335 335
335 335 333 334 335 332 331 329 330 331 332 333 333 333 333 333 333 333 333 334 332 336 342 349 352 352 351 349 346 344 343 343 342 342 340 339 338 337 336 335 335 335 335
336 337 334 333 332 332 330 329 328 328 329 331 332 332 332 331 332 332 332 332 333 330 333 340 345 348 350 350 348 345 344 342 342 341 341 339 338 337 336 335 335 335 335
338 336 337 335 334 332 331 329 328 326 328 327 327 328 330 331 331 331 332 331 331 333 330 331 336 340 343 347 349 349 347 344 342 342 340 339 339 337 337 336 335 335 335
340 337 335 336 335 334 331 331 330 328 326 327 327 326 328 328 330 333 331 331 331 331 330 330 329 331 336 341 345 349 350 348 345 344 342 340 339 338 337 336 336 335 335
340 339 337 336 336 333 332 329 328 328 328 327 330 329 326 329 330 329 331 332 332 331 331 330 329 329 328 334 338 343 347 349 348 347 345 342 340 339 337 337 336 336 336
337 337 338 335 336 335 333 330 328 326 327 326 324 326 325 324 326 328 330 330 329 330 330 332 331 331 330 328 333 338 344 347 347 347 345 343 341 338 337 336 336 336 336
317 325 333 336 337 336 334 331 328 328 327 326 326 320 318 320 324 326 328 328 328 329 329 329 332 332 332 332 329 331 337 342 344 345 343 341 340 339 338 337 336 336 336
315 314 314 314 326 336 335 333 332 328 328 325 326 323 316 314 316 321 324 326 327 327 327 327 328 330 330 330 329 328 325 327 335 340 341 340 339 339 338 338 337 337 336
312 312 311 313 314 315 321 333 333 332 330 327 325 328 327 320 316 316 323 323 325 325 326 327 329 330 331 332 331 328 325 320 323 332 337 339 340 339 338 338 337 337 337
308 310 310 310 311 312 315 316 323 332 332 329 328 327 324 326 325 320 317 317 318 327 329 331 332 334 334 334 334 332 322 320 319 324 330 334 337 338 338 337 337 337 337
303 306 307 309 310 311 312 314 317 319 332 332 331 330 327 323 322 321 320 320 319 320 321 330 334 335 335 336 334 327 322 318 317 320 323 327 331 334 336 336 337 337 337
300 301 303 305 306 308 310 312 315 314 316 322 333 332 331 329 328 324 322 321 320 323 324 326 326 334 336 336 335 325 322 317 316 317 319 321 323 327 330 332 334 335 335
299 300 301 302 304 306 308 310 312 312 311 311 311 325 332 332 331 329 324 321 319 322 325 325 328 329 330 334 333 323 332 316 314 313 314 316 317 319 321 323 326 328 330
300 299 300 300 301 303 304 307 309 308 307 307 308 310 311 322 334 332 331 328 322 316 317 321 322 328 332 333 333 335 335 325 315 313 312 312 314 315 316 317 318 319 322
298 298 299 299 299 301 302 303 304 308 306 305 306 305 308 312 314 325 333 331 329 325 319 324 323 323 326 329 332 335 337 324 315 312 311 309 309 311 311 312 312 313 315
298 298 299 299 299 299 300 300 301 305 303 303 303 304 305 308 311 316 320 328 331 329 324 326 327 327 323 329 330 333 335 333 333 312 310 308 305 305 306 307 308 309 310
298 298 299 298 298 298 300 298 299 300 300 299 300 301 303 308 308 311 315 317 318 321 324 324 326 326 325 328 333 334 334 335 334 317 310 307 304 303 303 303 303 304 305
298 298 298 298 298 298 298 298 300 299 298 298 297 298 300 304 305 307 310 312 313 316 319 319 320 327 329 330 331 333 330 329 329 319 308 305 304 303 303 302 302 302 302
296 296 297 297 298 297 297 297 298 296 296 295 296 298 299 302 304 304 307 306 312 310 313 316 318 319 322 328 331 331 329 326 327 321 315 311 307 304 303 302 301 302 302
295 295 295 294 295 295 296 295 295 295 293 293 294 296 299 301 299 298 303 308 308 307 307 310 313 317 320 321 322 326 326 328 317 320 321 319 318 312 310 303 304 303 301
293 292 292 291 292 293 292 292 292 293 293 292 293 294 295 298 301 297 297 295 296 303 304 307 308 307 309 315 318 316 317 316 316 316 320 320 315 313 314 311 305 301 300
291 290 290 291 291 292 291 292 291 292 292 292 293 293 294 296 297 301 298 295 296 295 295 301 307 307 306 307 307 310 318 318 318 316 316 305 307 311 313 310 301 299 299
289 289 289 291 291 292 291 291 290 292 292 293 292 292 293 293 294 293 295 296 298 300 302 301 301 304 305 304 305 306 308 320 313 304 312 301 293 297 293 305 301 300 298
288 289 290 290 290 291 291 290 290 290 290 291 292 293 293 291 291 292 292 292 292 293 293 294 294 294 294 294 296 303 303 305 296 292 297 298 288 288 287 288 294 298 297
289 290 290 291 291 290 290 290 290 289 288 288 290 291 290 290 290 290 290 290 289 289 288 289 292 295 297 300 296 302 304 301 294 291 293 295 289 289 290 287 287 290 292
Wind_Speed
4 4 5 6 6 5 6 5 6 6 7 8 9 6 8 7 6 3 3 13 12 13 15 17 18 18 18 18 17 17 17 17 17 17 17 16 16 16 16 16 16 15 15
5 4 5 5 6 7 7 8 7 8 8 8 9 10 9 6 6 6 4 6 15 15 15 16 18 19 20 20 19 19 19 19 19 19 19 18 17 17 17 17 17 16 17
7 6 5 5 5 7 8 7 8 5 6 6 10 9 9 9 7 7 6 4 6 16 16 16 17 18 20 21 21 21 21 21 20 21 20 19 19 18 18 18 18 18 17
8 6 4 4 5 4 7 5 7 7 7 7 6 6 7 6 9 9 8 8 8 7 12 18 18 20 20 21 22 22 22 22 22 22 21 21 20 20 20 20 19 19 18
10 9 6 5 6 4 4 5 5 5 7 7 6 6 6 6 8 9 12 13 12 11 9 12 21 21 21 22 22 23 23 23 23 23 23 22 22 22 21 20 20 19 19
10 9 8 8 6 4 5 5 5 5 5 5 8 8 6 9 9 8 11 11 13 14 13 14 10 11 21 23 24 24 25 24 24 24 24 23 23 22 21 21 20 20 19
14 9 8 6 6 8 6 6 5 7 7 3 3 9 7 6 8 10 11 11 12 12 12 14 11 10 10 21 24 25 25 25 25 25 24 24 24 23 22 21 21 20 20
14 17 13 9 12 10 9 6 6 7 6 5 9 2 7 6 10 10 9 11 15 13 12 13 13 13 11 9 13 23 25 25 25 25 25 24 23 22 22 22 21 20 19
15 14 14 14 15 10 10 11 9 9 11 5 10 8 3 8 2 5 12 13 16 12 12 13 13 12 12 11 9 14 22 22 23 24 24 23 23 23 21 21 20 20 21
13 14 14 13 12 9 15 13 8 11 11 13 4 9 15 5 5 6 3 6 10 12 14 10 12 13 14 11 16 20 20 21 21 22 22 22 21 20 21 20 20 20 20
13 13 13 13 13 9 11 14 17 13 11 12 12 11 7 11 14 12 17 11 5 6 10 11 12 11 13 13 12 13 20 20 20 19 21 21 21 21 21 20 20 20 20
8 11 12 10 8 9 11 11 15 16 16 13 12 13 13 11 12 11 13 16 16 15 11 9 10 11 11 11 13 16 18 19 19 19 18 19 19 20 20 20 20 20 20
11 13 14 13 10 10 10 13 12 15 14 15 15 13 13 14 14 14 12 14 15 13 11 11 12 12 12 12 13 17 17 20 20 20 20 19 18 17 18 19 19 20 20
10 14 14 14 15 16 13 9 7 9 12 14 17 18 13 13 13 14 15 14 17 14 14 16 7 12 12 12 15 19 15 21 21 20 19 17 16 16 16 16 16 16 17
9 12 13 14 14 14 14 13 8 8 6 8 13 13 13 16 15 14 15 14 15 19 20 14 11 8 10 12 14 15 17 20 23 22 19 17 16 16 16 15 14 14 16
7 10 11 12 14 14 15 16 13 9 9 7 8 15 13 11 16 14 15 16 15 17 22 14 15 10 12 12 12 15 17 20 22 24 21 18 15 15 15 14 14 14 14
6 8 9 10 11 14 14 14 14 14 15 13 10 12 13 14 10 13 13 15 15 16 21 16 14 15 13 14 15 12 15 13 13 21 20 18 16 16 16 15 15 15 14
7 8 9 10 11 11 11 15 16 12 14 17 16 13 14 10 13 12 13 14 11 13 14 22 17 14 18 15 11 14 10 10 11 15 18 18 18 16 15 15 14 13 13
10 9 12 13 13 11 11 12 12 13 14 15 17 17 16 16 14 9 13 12 10 15 14 11 9 8 11 8 14 13 9 7 6 11 13 14 15 16 15 13 12 13 13
12 14 13 13 14 15 15 11 12 14 14 16 17 18 17 16 14 15 12 14 7 7 11 10 11 9 12 15 14 18 14 4 6 5 9 10 11 14 15 14 15 14 14
13 13 15 15 15 14 11 18 16 16 17 16 15 17 15 16 23 21 13 11 13 10 9 9 9 8 6 9 11 14 18 10 3 4 5 4 5 1 3 7 9 14 19
14 15 15 15 15 12 18 18 18 17 17 15 15 15 16 20 14 17 14 12 12 9 11 8 8 8 8 7 7 2 6 12 6 3 5 5 4 4 6 6 14 14 17
14 15 14 14 16 16 20 22 23 15 16 15 16 14 15 11 15 15 13 14 11 9 9 9 11 8 8 6 9 14 11 11 15 6 4 4 5 7 8 8 12 13 10
14 13 14 16 16 14 20 22 24 18 16 17 18 18 15 13 14 17 16 14 13 11 10 6 7 11 9 8 4 6 15 16 7 3 6 5 4 4 1 5 10 12 12
12 13 14 15 16 16 20 23 22 17 16 17 15 15 14 16 15 19 14 14 14 13 9 14 13 13 15 14 10 2 6 7 6 3 2 4 2 2 1 2 4 5 8
12 12 15 15 18 16 21 23 22 13 16 14 15 14 15 13 17 18 13 13 13 11 11 15 12 12 10 9 11 6 3 2 4 6 3 0 2 4 5 1 1 4 3
Wind_Direction
242 231 190 184 190 184 197 201 207 218 228 238 249 236 244 240 243 246 201 196 211 219 218 210 207 209 214 219 223 227 229 230 232 234 235 235 237 238 239 239 239 239 239
211 209 227 197 198 194 200 202 203 214 224 226 237 248 247 245 250 261 214 204 214 217 220 219 217 217 218 220 222 225 229 230 231 234 235 235 235 236 237 239 241 240 240
213 220 224 227 197 210 210 210 217 211 222 226 234 237 243 250 248 245 254 230 216 230 222 221 224 225 225 224 224 225 227 230 231 233 235 235 236 237 237 238 240 241 242
203 217 213 241 254 198 215 208 217 226 226 216 219 226 235 232 236 236 238 243 246 232 226 229 227 229 228 229 230 230 230 231 232 233 234 234 234 235 236 238 238 240 239
212 212 221 228 233 247 239 214 213 215 225 230 230 234 231 230 234 236 236 236 237 240 237 226 227 229 231 231 232 233 233 234 234 234 234 234 234 235 235 235 237 238 239
206 204 217 222 221 234 245 249 235 237 225 217 240 245 232 238 237 230 235 232 232 231 234 238 231 232 230 231 232 233 235 236 236 235 235 235 235 235 235 236 237 238 239
338 245 209 223 224 225 229 225 234 227 255 234 255 256 263 245 249 246 243 239 237 232 230 232 232 233 232 228 232 233 236 238 238 237 236 234 234 234 233 233 234 234 235
6 4 337 260 219 229 234 229 222 249 252 197 232 223 268 281 251 237 234 237 239 238 237 231 231 229 230 227 225 226 233 236 237 236 234 232 231 231 232 233 234 235 235
21 10 8 359 345 289 235 227 228 215 251 238 222 216 251 238 269 235 237 236 241 238 242 238 234 226 227 228 223 224 224 227 230 234 235 233 230 230 233 235 236 236 241
14 16 11 3 358 351 350 300 238 230 235 248 244 231 238 207 232 299 269 251 244 241 239 239 238 234 230 223 221 221 217 217 222 227 232 234 233 231 231 233 235 235 235
359 4 13 357 357 352 351 332 335 277 231 233 238 240 239 247 250 250 267 262 262 238 238 233 232 232 233 231 232 229 217 214 217 220 224 226 228 228 229 229 230 232 233
352 352 348 348 331 340 342 337 333 322 286 247 237 234 235 238 242 242 255 258 260 259 252 245 236 236 233 232 227 223 216 219 219 223 222 224 225 226 225 226 229 231 230
347 346 349 344 329 332 338 348 339 341 331 327 264 242 235 236 240 246 248 258 258 260 257 243 239 238 236 231 232 223 218 216 221 223 222 223 222 220 221 225 229 232 232
338 339 337 339 343 338 342 324 330 330 337 329 342 318 260 244 239 237 243 251 264 258 253 253 239 229 231 233 227 219 226 217 217 218 220 217 217 218 221 223 226 229 232
332 338 333 335 335 332 328 328 323 320 336 346 339 332 320 331 262 243 241 237 243 259 258 251 247 233 244 239 226 219 221 220 222 224 220 215 211 211 216 220 222 224 234
315 325 331 332 332 331 328 330 329 318 335 331 347 329 338 330 314 318 269 239 240 246 261 251 252 249 244 238 226 226 226 217 215 215 212 210 206 210 212 214 219 225 233
295 309 313 320 327 330 328 326 325 323 334 337 335 325 323 321 329 321 317 315 261 252 255 250 247 249 246 247 250 236 229 216 219 213 207 203 199 206 208 211 215 219 221
304 301 309 312 320 322 319 324 322 333 334 324 320 323 311 294 300 334 310 315 306 307 307 278 244 243 241 242 236 233 215 209 206 203 205 200 198 200 204 210 215 217 220
327 328 330 324 315 316 319 318 315 328 322 320 319 309 310 316 312 333 313 307 327 318 296 293 306 297 288 287 255 233 216 211 210 209 202 200 196 196 202 211 217 222 217
336 334 332 331 333 326 318 309 318 315 318 313 314 312 312 304 304 304 301 307 296 316 318 292 298 291 272 261 256 266 218 217 169 176 218 217 204 209 208 210 209 211 224
335 338 337 332 330 330 328 336 325 322 316 313 309 300 296 299 299 291 312 321 337 328 319 337 310 303 283 269 258 268 277 219 222 132 216 202 232 263 274 261 265 232 221
341 338 336 333 329 326 324 317 317 316 312 307 303 311 308 301 296 304 295 307 289 322 331 325 304 318 330 321 315 296 268 321 317 343 215 200 166 249 244 216 231 234 224
338 332 330 329 330 326 326 323 319 316 309 306 307 308 309 310 313 315 326 301 301 295 270 306 308 321 319 334 327 338 266 255 244 217 204 217 165 211 235 231 205 208 215
331 327 327 329 326 323 322 323 327 320 315 310 314 310 305 316 318 317 322 323 322 319 306 310 315 317 313 299 311 321 317 253 255 136 172 223 153 211 249 243 220 208 207
330 327 325 325 323 329 337 334 329 326 316 312 308 311 312 308 301 304 316 315 309 306 294 294 288 274 284 299 298 4 333 350 305 328 304 121 289 261 220 277 328 239 211
328 330 333 337 329 334 333 330 327 321 318 318 311 302 292 280 282 293 298 304 298 293 299 305 304 294 292 285 292 257 209 79 285 336 325 288 47 39 332 316 25 359 348